TimeCST,TemperatureF,Dew PointF,Humidity,Sea Level PressureIn,VisibilityMPH,Wind Direction,Wind SpeedMPH,Gust SpeedMPH,PrecipitationIn,Events,Conditions,WindDirDegrees,DateUTC
12:53 AM,26.1,17.1,69,30.26,10.0,NNE,3.5,-,N/A,,Clear,30,2014-02-12 06:53:00
1:53 AM,24.1,16.0,71,30.24,10.0,ENE,4.6,-,N/A,,Clear,60,2014-02-12 07:53:00
2:53 AM,24.1,15.1,69,30.21,10.0,East,5.8,-,N/A,,Clear,80,2014-02-12 08:53:00
3:53 AM,24.1,15.1,69,30.20,10.0,Calm,Calm,-,N/A,,Clear,0,2014-02-12 09:53:00
4:53 AM,23.0,16.0,74,30.21,10.0,Calm,Calm,-,N/A,,Clear,0,2014-02-12 10:53:00
5:53 AM,21.9,15.1,75,30.22,10.0,NNE,3.5,-,N/A,,Clear,20,2014-02-12 11:53:00
6:53 AM,24.1,16.0,71,30.21,10.0,Calm,Calm,-,N/A,,Clear,0,2014-02-12 12:53:00
7:53 AM,25.0,17.1,72,30.22,10.0,Calm,Calm,-,N/A,,Clear,0,2014-02-12 13:53:00
8:53 AM,28.0,17.1,63,30.21,10.0,SE,3.5,-,N/A,,Clear,140,2014-02-12 14:53:00
9:53 AM,32.0,7.0,35,30.22,10.0,Calm,Calm,-,N/A,,Clear,0,2014-02-12 15:53:00
10:53 AM,37.0,9.0,31,30.21,10.0,Calm,Calm,-,N/A,,Clear,0,2014-02-12 16:53:00
11:53 AM,39.9,14.0,35,30.17,10.0,WSW,6.9,-,N/A,,Clear,240,2014-02-12 17:53:00
12:53 PM,44.1,15.1,31,30.13,10.0,WSW,6.9,-,N/A,,Clear,250,2014-02-12 18:53:00
1:53 PM,46.0,15.1,29,30.07,10.0,West,6.9,-,N/A,,Clear,260,2014-02-12 19:53:00
2:53 PM,46.9,15.1,28,30.03,10.0,WSW,9.2,-,N/A,,Clear,240,2014-02-12 20:53:00
3:53 PM,46.9,17.1,30,30.03,10.0,SW,11.5,-,N/A,,Clear,230,2014-02-12 21:53:00
4:53 PM,46.0,19.9,35,30.03,10.0,SW,9.2,-,N/A,,Partly Cloudy,230,2014-02-12 22:53:00
5:53 PM,43.0,23.0,45,30.04,10.0,West,12.7,-,N/A,,Clear,270,2014-02-12 23:53:00
6:53 PM,37.0,23.0,57,30.06,10.0,West,8.1,-,N/A,,Clear,270,2014-02-13 00:53:00
7:53 PM,37.9,21.9,53,30.05,10.0,WSW,4.6,-,N/A,,Clear,240,2014-02-13 01:53:00
8:53 PM,33.1,25.0,72,30.06,10.0,Calm,Calm,-,N/A,,Clear,0,2014-02-13 02:53:00
9:53 PM,33.1,23.0,66,30.05,10.0,Calm,Calm,-,N/A,,Clear,0,2014-02-13 03:53:00
10:53 PM,32.0,23.0,69,30.04,10.0,Calm,Calm,-,N/A,,Clear,0,2014-02-13 04:53:00
11:53 PM,30.9,23.0,72,30.04,10.0,Calm,Calm,-,N/A,,Clear,0,2014-02-13 05:53:00